OPS 5960 DEB, 43000

Orbit data source: Space-Track

OPS 5960 DEB, 43000 is space debris originally from a launch on Fri, 06 Nov 1970 UTC launched from the Air Force Eastern Test Range (AFETR). Debris objects in space refer to the collection of defunct objects orbiting the Earth. Examples of debris include non-operational satellites, rocket bodies, and fragments generated from explosions, collisions, or faulty payload assembly.

Not visible in the next 10 days
Identifier
43000, 1970-093D
Orbit
Active
Country
Flag of USUS
Related business
Manufacturer
Unknown
Mission
Spacecraft
Bus & Motor
Unknown
Mass
Wet unknown, 1 kg dry
Launch date (UTC)
1970-11-06 (56 years ago)
Launch vehicle
Unknown
Launch site
Air Force Eastern Test Range (AFETR)
Object type
Payload
Rocket body
Debris
Shape & HBR
Cyl, 0.3 m
Radar Cross Section
0.188 m², Medium (>0.1 m² and < 1m²)

Expand to show TLE details & history
Last TLE update: 3 days ago

TLE from 3 days ago
0 OPS 5960 DEB
1 43000U 70093D   26170.61450784 -.00000155  00000-0  00000-0 0  9999
2 43000  15.2208  35.7965 1167554 276.0860  70.7360  1.20560077 45651
Epoch: 2026-06-19T14:44Z
TLE epoch observation values (Epoch: 2026-06-19T14:44:53.477Z)
Latitude
0.00001°
Longitude
-93.26084°
Altitude
29,970.133 km
Speed
3.353 km/s
True Right ascension
02h 23m 12s
True Declination
0° 00' 00"
Sunlit
Object was in daylight at epoch
Visualization orbit readout
Latitude
Unknown
Longitude
Unknown
Altitude
Unknown
Speed
Unknown
Apparent Right ascension
Unknown
Apparent Declination
Unknown
Sunlit
N/A
Visualization observer readout
Local Sidereal Time
21:31:07
Azimuth
Unknown
Elevation
Unknown
Doppler factor
Unknown
Orbital elements
Apogee altitude
35,267.587 km
Perigee altitude
26,559.569 km
Semi-major axis
37,291.715 km
Eccentricity
0.11676
Inclination
15.2208°
RAAN
35.7965°
Arg. of periapsis
276.086°
True anomaly
83.88652°
Mean anomaly
70.736°
Eccentric anomaly
77.26092°
Mean motion
0.30139 °/min
Orbital period
1,194.48 mins
BSTAR
0
Loading maneuver chart data...
Computing Atmospheric mass density...
Loading historical data...
Loading historical data...
Loading historical data...
Loading historical data...
Loading historical data...
Loading historical data...
Loading historical data...
Other satellites on launch #93 in the year 1970 (1970-11-06 UTC)

Documentation

Showing up to 5 results
|